Tracking 17143 objects as of 30-June-2015
HD Live streaming from Space Station

EDUSAT

Track EDUSAT now!
10-day predictions
EDUSAT is classified as:


NORAD ID: 37788
Int'l Code: 2011-044A
Perigee: 640.7 km
Apogee: 694.6 km
Inclination: 98.2 °
Period: 97.9 minutes
Semi major axis: 7038 km
RCS: 0.1421 m2 (medium)
Launch date: August 17, 2011
Source: Italy (IT)

EduSat is a microsatellite built by the University of Rome.
Your satellite tracking list
Your tracking list is empty





NASA's NSSDC Master Catalog

Two Line Element Set (TLE):
1 37788U 11044A   15181.14769829  .00000207  00000-0  42714-4 0  9996
2 37788 098.2058 283.0097 0038242 200.9800 277.6084 14.70176222207368

Source of the keplerian elements: AFSPC

N2YO: 279